PIMOHWEATHER Historical Data
 
Daily Summary for January 22, 2020 Units:  Metric    English   Both
« Previous Day
Next Day »
Daily Weekly Monthly Yearly Custom
  Current: High: Low: Average:
Temperature: 31.8 °C 32.3 °C 22.5 °C 25.9 °C
Dew Point: 19.7 °C 21.4 °C 18.8 °C 20 °C
Humidity: 49% 84% 49% 71%
Wind Speed: 7.6km/h 20.1km/h 0.0km/h 3.3km/h
Wind Gust: 16.3km/h 24.1km/h - -
WindNE - - South
Pressure: 1015.5 hPa 1017.9 hPa 1013.8 hPa -
Precipitation: 0.0 mm      
Historical Graphs
 
 
Tabular Data for January 22, 2020
Time Temp. Dew Point Pressure Wind Wind Speed Wind Gust Humidity Rain Rate (Hourly) Solar Radiation Conditions
00:00 24.5 °C 18.9 °C 1016.1 hPa Calm     71% 0.0 mm 0.00 W/m2
00:05 24.6 °C 18.8 °C 1017.7 hPa Calm     70% 0.0 mm 0.00 W/m2
00:10 24.5 °C 18.9 °C 1015.8 hPa North 2.1 km/h 4.0 km/h 71% 0.0 mm 0.00 W/m2
00:15 24.6 °C 19.0 °C 1015.8 hPa North 1.4 km/h 4.0 km/h 71% 0.0 mm 0.00 W/m2
00:20 24.5 °C 18.9 °C 1015.8 hPa North 2.1 km/h 4.0 km/h 71% 0.0 mm 0.00 W/m2
00:25 24.5 °C 19.1 °C 1017.3 hPa NNE 1.1 km/h 4.0 km/h 72% 0.0 mm 0.00 W/m2
00:30 24.4 °C 19.0 °C 1015.8 hPa North 2.9 km/h 4.0 km/h 72% 0.0 mm 0.00 W/m2
00:35 24.4 °C 19.0 °C 1015.5 hPa North 2.1 km/h 4.0 km/h 72% 0.0 mm 0.00 W/m2
00:40 24.3 °C 19.2 °C 1015.5 hPa North 1.4 km/h 4.0 km/h 73% 0.0 mm 0.00 W/m2
00:45 24.3 °C 19.2 °C 1015.5 hPa Calm     73% 0.0 mm 0.00 W/m2
00:50 24.3 °C 19.4 °C 1015.5 hPa NW 4.0 km/h 4.0 km/h 74% 0.0 mm 0.00 W/m2
00:55 24.2 °C 19.5 °C 1015.5 hPa North 3.5 km/h 4.0 km/h 75% 0.0 mm 0.00 W/m2
01:00 24.0 °C 19.5 °C 1015.5 hPa Calm     76% 0.0 mm 0.00 W/m2
01:05 24.1 °C 19.6 °C 1015.1 hPa Calm     76% 0.0 mm 0.00 W/m2
01:10 24.0 °C 19.7 °C 1015.5 hPa North 2.9 km/h 4.0 km/h 77% 0.0 mm 0.00 W/m2
01:15 23.9 °C 19.8 °C 1015.1 hPa Calm     78% 0.0 mm 0.00 W/m2
01:20 23.8 °C 20.0 °C 1015.5 hPa NNW 2.6 km/h 4.0 km/h 79% 0.0 mm 0.00 W/m2
01:25 23.7 °C 19.9 °C 1015.1 hPa North 2.6 km/h 4.0 km/h 79% 0.0 mm 0.00 W/m2
01:30 23.7 °C 19.9 °C 1015.1 hPa NNE 2.1 km/h 4.0 km/h 79% 0.0 mm 0.00 W/m2
01:35 23.6 °C 19.8 °C 1014.8 hPa NNE 2.9 km/h 4.0 km/h 79% 0.0 mm 0.00 W/m2
01:40 23.6 °C 19.8 °C 1014.8 hPa Calm     79% 0.0 mm 0.00 W/m2
01:45 23.5 °C 19.7 °C 1014.8 hPa Calm     79% 0.0 mm 0.00 W/m2
01:50 23.6 °C 19.8 °C 1014.4 hPa Calm     79% 0.0 mm 0.00 W/m2
01:55 23.5 °C 19.7 °C 1014.4 hPa Calm     79% 0.0 mm 0.00 W/m2
02:00 23.5 °C 19.7 °C 1014.4 hPa Calm     79% 0.0 mm 0.00 W/m2
02:05 23.6 °C 19.8 °C 1014.4 hPa Calm     79% 0.0 mm 0.00 W/m2
02:10 23.5 °C 19.7 °C 1014.4 hPa Calm     79% 0.0 mm 0.00 W/m2
02:15 23.6 °C 19.8 °C 1014.1 hPa Calm     79% 0.0 mm 0.00 W/m2
02:20 23.5 °C 19.7 °C 1014.4 hPa Calm     79% 0.0 mm 0.00 W/m2
02:25 23.5 °C 19.7 °C 1014.1 hPa Calm     79% 0.0 mm 0.00 W/m2
02:30 23.5 °C 19.7 °C 1014.1 hPa Calm     79% 0.0 mm 0.00 W/m2
02:35 23.4 °C 19.8 °C 1014.1 hPa NW 5.0 km/h 7.9 km/h 80% 0.0 mm 0.00 W/m2
02:40 23.3 °C 19.7 °C 1014.1 hPa NE 4.7 km/h 7.9 km/h 80% 0.0 mm 0.00 W/m2
02:45 23.3 °C 19.7 °C 1013.8 hPa NNW 1.4 km/h 4.0 km/h 80% 0.0 mm 0.00 W/m2
02:50 23.2 °C 19.6 °C 1014.1 hPa NNE 2.6 km/h 4.0 km/h 80% 0.0 mm 0.00 W/m2
02:55 23.1 °C 19.7 °C 1014.1 hPa NW 3.5 km/h 4.0 km/h 81% 0.0 mm 0.00 W/m2
03:00 23.1 °C 19.7 °C 1013.8 hPa Calm     81% 0.0 mm 0.00 W/m2
03:05 23.1 °C 19.7 °C 1013.8 hPa Calm     81% 0.0 mm 0.00 W/m2
03:10 23.1 °C 19.7 °C 1013.8 hPa North 1.4 km/h 4.0 km/h 81% 0.0 mm 0.00 W/m2
03:15 23.1 °C 19.7 °C 1013.8 hPa North 2.9 km/h 4.0 km/h 81% 0.0 mm 0.00 W/m2
03:20 23.0 °C 19.6 °C 1013.8 hPa Calm     81% 0.0 mm 0.00 W/m2
03:25 23.0 °C 19.8 °C 1013.8 hPa NNW 4.0 km/h 4.0 km/h 82% 0.0 mm 0.00 W/m2
03:30 22.9 °C 19.7 °C 1013.8 hPa WNW 3.5 km/h 4.0 km/h 82% 0.0 mm 0.00 W/m2
03:35 22.8 °C 19.8 °C 1014.1 hPa Calm     83% 0.0 mm 0.00 W/m2
03:40 22.7 °C 19.7 °C 1013.8 hPa North 6.1 km/h 7.9 km/h 83% 0.0 mm 0.00 W/m2
03:45 22.6 °C 19.6 °C 1013.8 hPa NNE 4.0 km/h 4.0 km/h 83% 0.0 mm 0.00 W/m2
03:50 22.6 °C 19.6 °C 1013.8 hPa NNE 2.6 km/h 4.0 km/h 83% 0.0 mm 0.00 W/m2
03:55 22.6 °C 19.8 °C 1013.8 hPa Calm     84% 0.0 mm 0.00 W/m2
04:00 22.5 °C 19.7 °C 1013.8 hPa Calm     84% 0.0 mm 0.00 W/m2
04:05 22.5 °C 19.7 °C 1013.8 hPa Calm     84% 0.0 mm 0.00 W/m2
04:10 22.5 °C 19.7 °C 1013.8 hPa Calm     84% 0.0 mm 0.00 W/m2
04:15 22.8 °C 19.8 °C 1013.8 hPa Calm     83% 0.0 mm 0.00 W/m2
04:20 22.8 °C 19.8 °C 1013.8 hPa Calm     83% 0.0 mm 0.00 W/m2
04:25 22.7 °C 19.7 °C 1013.8 hPa Calm     83% 0.0 mm 0.00 W/m2
04:30 22.9 °C 19.7 °C 1013.8 hPa Calm     82% 0.0 mm 0.00 W/m2
04:35 22.8 °C 19.6 °C 1014.1 hPa Calm     82% 0.0 mm 0.00 W/m2
04:40 22.7 °C 19.7 °C 1013.8 hPa Calm     83% 0.0 mm 0.00 W/m2
04:45 22.9 °C 19.7 °C 1014.1 hPa Calm     82% 0.0 mm 0.00 W/m2
04:50 23.0 °C 19.8 °C 1013.8 hPa NNW 4.0 km/h 4.0 km/h 82% 0.0 mm 0.00 W/m2
04:55 22.9 °C 19.7 °C 1013.8 hPa Calm     82% 0.0 mm 0.00 W/m2
05:00 22.8 °C 19.6 °C 1013.8 hPa Calm     82% 0.0 mm 0.00 W/m2
05:05 22.9 °C 19.7 °C 1015.6 hPa North 1.8 km/h 4.0 km/h 82% 0.0 mm 0.00 W/m2
05:10 22.8 °C 19.8 °C 1014.1 hPa North 4.0 km/h 4.0 km/h 83% 0.0 mm 0.00 W/m2
05:15 22.7 °C 19.7 °C 1014.1 hPa North 5.0 km/h 7.9 km/h 83% 0.0 mm 0.00 W/m2
05:20 22.7 °C 19.7 °C 1013.8 hPa NNE 2.1 km/h 4.0 km/h 83% 0.0 mm 0.00 W/m2
05:25 22.7 °C 19.7 °C 1014.1 hPa North 2.9 km/h 4.0 km/h 83% 0.0 mm 0.00 W/m2
05:30 22.8 °C 19.8 °C 1014.1 hPa Calm     83% 0.0 mm 0.00 W/m2
05:35 22.8 °C 19.8 °C 1014.4 hPa North 2.1 km/h 4.0 km/h 83% 0.0 mm 0.00 W/m2
05:40 22.8 °C 19.8 °C 1014.4 hPa NNE 3.5 km/h 4.0 km/h 83% 0.0 mm 0.00 W/m2
05:45 22.7 °C 19.7 °C 1014.4 hPa North 1.1 km/h 4.0 km/h 83% 0.0 mm 0.00 W/m2
05:50 22.8 °C 19.8 °C 1014.4 hPa NNW 5.0 km/h 7.9 km/h 83% 0.0 mm 0.00 W/m2
05:55 22.7 °C 19.7 °C 1014.8 hPa NNW 4.0 km/h 4.0 km/h 83% 0.0 mm 0.00 W/m2
06:00 22.8 °C 19.8 °C 1014.8 hPa North 1.4 km/h 4.0 km/h 83% 0.0 mm 0.00 W/m2
06:05 22.7 °C 19.7 °C 1016.5 hPa NNW 2.1 km/h 4.0 km/h 83% 0.0 mm 0.00 W/m2
06:10 22.9 °C 19.9 °C 1014.8 hPa NNE 4.0 km/h 7.9 km/h 83% 0.0 mm 0.00 W/m2
06:15 22.8 °C 19.8 °C 1015.1 hPa NNW 6.4 km/h 7.9 km/h 83% 0.0 mm 0.00 W/m2
06:20 22.6 °C 19.6 °C 1014.8 hPa WNW 2.6 km/h 4.0 km/h 83% 0.0 mm 0.00 W/m2
06:25 22.7 °C 19.7 °C 1016.7 hPa North 3.7 km/h 7.9 km/h 83% 0.0 mm 0.01 W/m2
06:30 22.6 °C 19.6 °C 1015.1 hPa North 4.7 km/h 7.9 km/h 83% 0.0 mm 2.30 W/m2
06:35 22.6 °C 19.6 °C 1015.1 hPa NNE 2.9 km/h 4.0 km/h 83% 0.0 mm 4.96 W/m2
06:40 22.7 °C 19.7 °C 1015.1 hPa NNW 4.0 km/h 4.0 km/h 83% 0.0 mm 8.54 W/m2
06:45 22.6 °C 19.6 °C 1017.0 hPa North 5.5 km/h 7.9 km/h 83% 0.0 mm 12.26 W/m2
06:50 22.7 °C 19.7 °C 1015.1 hPa North 2.1 km/h 4.0 km/h 83% 0.0 mm 12.79 W/m2
06:55 22.8 °C 19.6 °C 1015.5 hPa North 6.4 km/h 7.9 km/h 82% 0.0 mm 19.29 W/m2
07:00 23.0 °C 19.8 °C 1015.5 hPa NNW 5.0 km/h 7.9 km/h 82% 0.0 mm 21.45 W/m2
07:05 23.2 °C 19.8 °C 1015.1 hPa NNE 7.6 km/h 7.9 km/h 81% 0.0 mm 25.69 W/m2
07:10 23.3 °C 19.8 °C 1015.1 hPa NE 8.7 km/h 12.2 km/h 81% 0.0 mm 35.38 W/m2
07:15 23.6 °C 20.0 °C 1015.5 hPa Calm     80% 0.0 mm 43.85 W/m2
07:20 23.9 °C 20.1 °C 1015.5 hPa NNW 2.6 km/h 4.0 km/h 79% 0.0 mm 48.96 W/m2
07:25 23.3 °C 19.4 °C 1017.3 hPa North 7.9 km/h 12.2 km/h 78% 0.0 mm 66.95 W/m2
07:30 24.4 °C 20.3 °C 1015.8 hPa NNE 4.0 km/h 4.0 km/h 78% 0.0 mm 71.74 W/m2
07:35 24.7 °C 20.4 °C 1015.8 hPa NNE 4.0 km/h 4.0 km/h 77% 0.0 mm 61.25 W/m2
07:40 24.6 °C 20.3 °C 1015.8 hPa North 3.5 km/h 4.0 km/h 77% 0.0 mm 44.81 W/m2
07:45 24.7 °C 20.2 °C 1015.8 hPa Calm     76% 0.0 mm 41.75 W/m2
07:50 25.1 °C 20.6 °C 1016.1 hPa Calm     76% 0.0 mm 64.82 W/m2
07:55 25.9 °C 20.7 °C 1016.1 hPa ENE 0.3 km/h 4.0 km/h 73% 0.0 mm 65.72 W/m2
08:00 25.8 °C 20.6 °C 1016.1 hPa NNE 0.3 km/h 4.0 km/h 73% 0.0 mm 70.48 W/m2
08:05 26.3 °C 20.9 °C 1015.8 hPa Calm     72% 0.0 mm 76.44 W/m2
08:10 27.6 °C 21.2 °C 1015.8 hPa ESE 0.3 km/h 4.0 km/h 68% 0.0 mm 84.36 W/m2
08:15 28.3 °C 21.4 °C 1015.8 hPa NNE 1.1 km/h 4.0 km/h 66% 0.0 mm 90.99 W/m2
08:20 28.6 °C 21.4 °C 1016.1 hPa Calm     65% 0.0 mm 98.84 W/m2
08:25 28.7 °C 21.3 °C 1016.1 hPa SSW 1.4 km/h 4.0 km/h 64% 0.0 mm 106.77 W/m2
08:30 28.3 °C 20.9 °C 1016.1 hPa NNE 4.0 km/h 7.9 km/h 64% 0.0 mm 114.04 W/m2
08:35 28.5 °C 20.8 °C 1016.1 hPa WSW 4.0 km/h 7.9 km/h 63% 0.0 mm 121.35 W/m2
08:40 28.7 °C 20.7 °C 1016.1 hPa East 5.0 km/h 7.9 km/h 62% 0.0 mm 130.04 W/m2
08:45 28.4 °C 20.3 °C 1017.9 hPa ENE 3.7 km/h 7.9 km/h 61% 0.0 mm 138.73 W/m2
08:50 28.9 °C 20.7 °C 1016.1 hPa Calm     61% 0.0 mm 150.00 W/m2
08:55 28.8 °C 20.6 °C 1016.5 hPa SSE 1.4 km/h 4.0 km/h 61% 0.0 mm 161.11 W/m2
09:00 28.7 °C 19.9 °C 1016.5 hPa NW 3.5 km/h 4.0 km/h 59% 0.0 mm 171.09 W/m2
09:05 29.1 °C 19.7 °C 1016.5 hPa North 6.4 km/h 7.9 km/h 57% 0.0 mm 179.49 W/m2
09:10 29.5 °C 20.1 °C 1016.5 hPa NNE 2.6 km/h 4.0 km/h 57% 0.0 mm 193.92 W/m2
09:15 29.5 °C 19.8 °C 1016.5 hPa NE 6.4 km/h 7.9 km/h 56% 0.0 mm 202.00 W/m2
09:20 29.2 °C 19.8 °C 1016.1 hPa North 11.1 km/h 12.2 km/h 57% 0.0 mm 213.28 W/m2
09:25 30.1 °C 20.4 °C 1016.1 hPa South 2.9 km/h 7.9 km/h 56% 0.0 mm 225.04 W/m2
09:30 30.7 °C 20.1 °C 1016.1 hPa NE 2.1 km/h 4.0 km/h 53% 0.0 mm 232.41 W/m2
09:35 30.6 °C 20.0 °C 1016.1 hPa NNW 1.1 km/h 4.0 km/h 53% 0.0 mm 233.68 W/m2
09:40 30.0 °C 19.4 °C 1016.1 hPa WSW 2.6 km/h 4.0 km/h 53% 0.0 mm 252.42 W/m2
09:45 30.3 °C 19.7 °C 1016.1 hPa NNE 1.1 km/h 4.0 km/h 53% 0.0 mm 258.17 W/m2
09:50 30.3 °C 19.7 °C 1015.8 hPa NNE 7.9 km/h 12.2 km/h 53% 0.0 mm 267.18 W/m2
09:55 30.4 °C 19.8 °C 1016.1 hPa ENE 5.0 km/h 7.9 km/h 53% 0.0 mm 281.83 W/m2
10:00 30.6 °C 20.0 °C 1016.1 hPa SSE 7.9 km/h 16.3 km/h 53% 0.0 mm 296.32 W/m2
10:05 30.3 °C 19.4 °C 1017.8 hPa East 3.7 km/h 7.9 km/h 52% 0.0 mm 304.29 W/m2
10:10 30.8 °C 19.9 °C 1015.8 hPa East 4.0 km/h 7.9 km/h 52% 0.0 mm 336.25 W/m2
10:15 31.6 °C 19.9 °C 1016.1 hPa East 2.9 km/h 4.0 km/h 50% 0.0 mm 393.21 W/m2
10:20 31.0 °C 19.7 °C 1015.8 hPa North 20.1 km/h 24.1 km/h 51% 0.0 mm 396.07 W/m2
10:25 30.9 °C 20.2 °C 1017.6 hPa NNE 10.8 km/h 20.1 km/h 53% 0.0 mm 377.32 W/m2
10:30 30.8 °C 20.1 °C 1016.1 hPa Calm     53% 0.0 mm 367.96 W/m2
10:35 31.5 °C 20.2 °C 1015.8 hPa NW 6.1 km/h 7.9 km/h 51% 0.0 mm 363.51 W/m2
10:40 31.3 °C 20.3 °C 1015.8 hPa ESE 17.2 km/h 20.1 km/h 52% 0.0 mm 170.24 W/m2
10:45 30.7 °C 20.1 °C 1015.8 hPa NW 2.1 km/h 4.0 km/h 53% 0.0 mm 168.82 W/m2
10:50 30.3 °C 20.0 °C 1015.8 hPa NNE 7.2 km/h 7.9 km/h 54% 0.0 mm 468.54 W/m2
10:55 30.4 °C 20.1 °C 1015.8 hPa ENE 10.5 km/h 16.3 km/h 54% 0.0 mm 186.61 W/m2
11:00 30.3 °C 20.3 °C 1015.8 hPa South 3.5 km/h 4.0 km/h 55% 0.0 mm 182.03 W/m2
11:05 30.7 °C 20.7 °C 1017.2 hPa NE 4.8 km/h 12.2 km/h 55% 0.0 mm 177.74 W/m2
11:10 30.0 °C 20.3 °C 1015.8 hPa South 1.4 km/h 4.0 km/h 56% 0.0 mm 214.96 W/m2
11:15 30.2 °C 20.5 °C 1015.5 hPa SE 5.0 km/h 7.9 km/h 56% 0.0 mm 185.82 W/m2
11:20 30.0 °C 20.9 °C 1015.5 hPa NE 6.4 km/h 12.2 km/h 58% 0.0 mm 150.35 W/m2
11:25 29.9 °C 20.8 °C 1015.5 hPa WNW 5.5 km/h 7.9 km/h 58% 0.0 mm 150.37 W/m2
11:30 29.7 °C 20.9 °C 1015.5 hPa SSE 3.5 km/h 4.0 km/h 59% 0.0 mm 162.41 W/m2
11:35 29.6 °C 20.8 °C 1015.8 hPa East 19.1 km/h 20.1 km/h 59% 0.0 mm 174.79 W/m2
11:40 30.0 °C 20.9 °C 1015.5 hPa NNE 6.1 km/h 7.9 km/h 58% 0.0 mm 177.90 W/m2
11:45 30.4 °C 20.7 °C 1015.5 hPa NNE 5.5 km/h 7.9 km/h 56% 0.0 mm 450.46 W/m2
11:50 30.7 °C 20.9 °C 1015.1 hPa SSE 8.7 km/h 12.2 km/h 56% 0.0 mm 414.69 W/m2
11:55 31.1 °C 21.0 °C 1015.5 hPa NE 2.9 km/h 4.0 km/h 55% 0.0 mm 411.58 W/m2
12:00 31.1 °C 20.7 °C 1015.1 hPa North 1.4 km/h 4.0 km/h 54% 0.0 mm 415.16 W/m2
12:05 31.8 °C 20.8 °C 1015.1 hPa SSE 7.9 km/h 12.2 km/h 52% 0.0 mm 416.77 W/m2
12:10 31.6 °C 20.6 °C 1014.8 hPa SE 11.6 km/h 16.3 km/h 52% 0.0 mm 422.18 W/m2
12:15 32.1 °C 20.7 °C 1014.4 hPa North 3.5 km/h 7.9 km/h 51% 0.0 mm 424.58 W/m2
12:20 31.3 °C 20.6 °C 1014.4 hPa ENE 7.9 km/h 12.2 km/h 53% 0.0 mm 426.12 W/m2
12:25 31.4 °C 20.4 °C 1015.8 hPa ESE 5.6 km/h 12.2 km/h 52% 0.0 mm 443.96 W/m2
12:30 31.4 °C 20.4 °C 1014.4 hPa NE 15.4 km/h 16.3 km/h 52% 0.0 mm 470.21 W/m2
12:35 32.0 °C 20.3 °C 1014.4 hPa SE 4.7 km/h 7.9 km/h 50% 0.0 mm 486.55 W/m2
12:40 32.3 °C 20.6 °C 1014.4 hPa NE 7.9 km/h 12.2 km/h 50% 0.0 mm 506.49 W/m2
12:45 31.8 °C 19.7 °C 1015.5 hPa NE 7.6 km/h 16.3 km/h 49% 0.0 mm 228.96 W/m2
PIMOHWEATHER Philippines
Compliments of Weather Underground - 2 mb